Regional Weather Roundup
Issued by NWS Wakefield, VA

Home | Current Version | Previous Version | Graphics & Text | Print | Product List | Glossary On
Versions: 1 2 3 4 5 6 7 8 9 10 11 12 13 14 15 16 17 18 19 20 21 22 23 24 25 26 27 28 29 30 31 32 33 34 35 36 37 38 39 40 41 42 43 44 45 46 47 48 49 50
000
ASUS41 KAKQ 070315
RWRAKQ

REGIONAL WEATHER ROUNDUP
NATIONAL WEATHER SERVICE WAKEFIELD VA
1000 PM EST SAT FEB 06 2016

Note: "fair" indicates few or no clouds below 12,000 feet with no
significant weather and/or obstructions to visibility. * = Denotes
station may not report precipitation (e.g., rain,snow,etc.),
thunder or fog.

VAZ042-051-052>054-056-070400-
NORTHERN VIRGINIA

CITY           SKY/WX    TMP DP  RH WIND       PRES   REMARKS
WASH NATIONAL  MOCLDY    37  25  61 S8        30.32F
DULLES         FAIR      31  20  63 S3        30.29F
FORT BELVOIR   FAIR      31  24  73 CALM      30.31F
QUANTICO       FAIR      33  26  75 NW3       30.32F
FREDERICKSBRG* FAIR      29  24  79 CALM      30.30F
STAFFORD*      FAIR      28  21  78 CALM      30.34F
WARRENTON      FAIR      29  26  88 CALM      30.28F
CULPEPER*      FAIR      28  22  79 CALM      30.30F
MANASSAS*      CLEAR     28  25  86 CALM      30.30F
LEESBURG*      FAIR      36  25  64 CALM      30.29F
WINCHESTER     FAIR      34  21  60 S5        30.26S
FRONT ROYAL*   FAIR      32  21  64 S5        30.25F
LURAY*         FAIR      30  21  69 CALM      30.26S
$$

VAZ048-049-060>072-079>083-070400-
CENTRAL AND SOUTH CENTRAL VIRGINIA

CITY           SKY/WX    TMP DP  RH WIND       PRES   REMARKS
RICHMOND       FAIR      32  23  69 E3        30.30F
CHESTERFIELD*  FAIR      28  12  50 CALM      30.30F
PETERSBURG*    FAIR      27  25  90 CALM      30.31F
HANOVER        FAIR      28  23  81 CALM      30.31F
TAPPAHANNOCK*  FAIR      33  25  75 CALM      30.32S
QUINTON*       FAIR      29  24  82 CALM      30.30F
CHARLOTTSVILLE FAIR      35  17  47 N3        30.26F
GORDONSVILLE*  FAIR      29  24  82 CALM      30.27F
ORANGE*        FAIR      30  25  80 CALM      30.29F
LOUISA*        FAIR      30  19  64 CALM      30.27F
BUMPASS*       FAIR      28  20  71 CALM      30.28F
FARMVILLE*     FAIR      28  24  84 CALM      30.26F
CREWE*         FAIR      26  24  93 CALM      30.27F
FORT PICKETT*  FAIR      29  23  77 CALM      30.27F
CHASE CITY*    FAIR      29  22  75 CALM      30.27F
CLARKSVILLE*   FAIR      28  23  80 CALM      30.28R
SOUTH HILL*    FAIR      27  23  85 CALM      30.33F
LAWRENCEVILLE* FAIR      30  27  88 CALM      30.27F
EMPORIA*       FAIR      28  27  93 CALM      30.30F
$$

VAZ088>098-070400-
SOUTHEAST VIRGINIA

CITY           SKY/WX    TMP DP  RH WIND       PRES   REMARKS
NORFOLK        FAIR      33  26  75 CALM      30.31F
VIRGINIA BEACH FAIR      34  26  72 CALM      30.31F
NORFOLK NAVAL  FAIR      31  25  78 E3        30.31F
WEST POINT*    FAIR      30  24  79 CALM      30.33F
SALUDA*        FAIR      28  27  93 CALM      30.31F
NEWPORT NEWS   FAIR      29  26  89 CALM      30.31F
LANGLEY AFB    FAIR      29  25  85 CALM      30.30F
FORT EUSTIS    FAIR      31  24  73 NE2       30.29F
WILLIAMSBURG*  FAIR      32  30  93 CALM      30.31F
HR EXEC AP*    FAIR      27  21  80 CALM      30.32S
FRANKLIN*      FAIR      28  26  90 CALM      30.31F
US460-WAKEFLD  FAIR      29  25  85 CALM      30.30F
$$

VAZ020-022-025-037-045-070400-
WEST CENTRAL AND SOUTHWEST VIRGINIA

CITY           SKY/WX    TMP DP  RH WIND       PRES   REMARKS
STAUNTON*      FAIR      33  22  64 CALM      30.26F
WAYNESBORO*    FAIR      30  17  57 CALM      30.23F
HOT SPRINGS VA FAIR      32  15  49 W9        30.13F
LYNCHBURG      FAIR      28  21  75 CALM      30.26F
DANVILLE       FAIR      29  20  69 S3        30.28R
SOUTH BOSTON*  FAIR      28  22  79 CALM      30.28R
MARTINSVILLE   FAIR      24  17  72 CALM      30.28F
ROANOKE        MOCLDY    32  19  58 CALM      30.26F
BLACKSBURG     MOCLDY    29  23  77 CALM      30.25S
DUBLIN*        MOCLDY    32  22  68 CALM      30.24S
MARION*        FAIR      32  19  59 CALM      30.24S
HILLSVILLE*    FAIR      33  16  50 W7        30.19S
RICHLANDS*     CLOUDY    34   3  26 CALM      30.22S
WISE*          CLOUDY    36  14  41 W3        30.22F
ABINGDON*      FAIR      33  21  62 CALM      30.24S
$$

MDZ021>025-VAZ099-100-070400-
SOUTHERN MARYLAND AND THE DELMARVA PENINSULA

CITY           SKY/WX    TMP DP  RH WIND       PRES   REMARKS
PATUXENT RIVER CLEAR     28  23  81 SW5       30.31F
BAY BRIDGE APT   N/A     36  28  75 CALM      30.32F
LEONARDTOWN    CLEAR     32  25  74 CALM      30.33F
DOVER          CLOUDY    33  26  77 S6        30.31S
GEORGETOWN     CLEAR     31  27  85 CALM      30.33F
EASTON         CLEAR     33  25  72 CALM      30.35F
CAMBRIDGE      CLEAR     30  27  86 CALM      30.32F
SALISBURY      CLEAR     28  25  88 CALM      30.33F
OCEAN CITY     CLEAR     28  26  92 CALM      30.34S
WALLOPS ISLAND FAIR      27  25  92 W3        30.34F
ACCOMACK*      FAIR      28  27  93 CALM      30.32F
$$

NCZ012>017-030>032-070400-
NORTH CENTRAL AND EASTERN NORTH CAROLINA

CITY           SKY/WX    TMP DP  RH WIND       PRES   REMARKS
ROANOKE RAPIDS FAIR      30  27  86 CALM      30.29F
RALEIGH        CLOUDY    39  23  52 NE6       30.27F
ELIZABETH CITY CLOUDY    39  33  79 NE8       30.29F
AHOSKIE*       MOCLDY    32  27  81 CALM      30.30F
EDENTON*       CLOUDY    40  34  80 N3        30.30S
CURRITUCK*     CLOUDY    34  33  97 CALM      30.30F
KILL DEVIL HLS CLOUDY    42  32  69 N7        30.26F
MANTEO         CLOUDY    42  34  74 NE10      30.28F
CAPE HATTERAS  CLOUDY    45  37  73 NE12G17   30.24F
TARBORO*       CLOUDY    41  28  60 NE5       30.30F
GOLDSBORO      CLOUDY    43  25  49 NE9       30.23F
WASHINGTON     CLOUDY    40  33  75 CALM      30.27F
GREENVILLE     CLOUDY    41  30  65 NE6       30.28F
NEW BERN       CLOUDY    42  32  67 NE13      30.26F
WILMINGTON     CLOUDY    44  31  60 NE15      30.20F
$$

VAZ048-070400-
ELSEWHERE

CITY           SKY/WX    TMP DP  RH WIND       PRES   REMARKS
HARRISBURG PA  CLOUDY    32  23  69 E6        30.27S
BALTIMORE      PTCLDY    33  23  66 CALM      30.30F
ANNAPOLIS      PTCLDY    37  26  64 S3        30.32S
ANDREWS AFB    FAIR      33  23  66 S6        30.29F
PHILADELPHIA   MOCLDY    36  27  69 SW6       30.32S
HENDERSON NC   CLOUDY    32  22  66 CALM      30.27S
GREENSBORO     CLOUDY    36  20  52 CALM      30.24F
ROCKY MOUNT    CLOUDY    38  29  70 NE5       30.28F
$$

VAZ100-070400-
MARINE

STATION/POSITION TIME  TEMP    WIND        PRES    WAVE   SWELL
                       AIR SEA DIR/SP/G            HT/PER HT/PER
                 (UTC) (F)     (DEG/KT/KT) (MB)    (FT/S) (FT/S)
BRANDYWINE LGT   0200   38     220/ 16/ 17 1027.0S
CAPE MAY NJ      0200   38 43  210/  7/ 10 1027.1R
LEWES DE         0200   34 43  240/  4/  4 1027.4R
15NM E FENWICK I 0250   40 45              1027.3F   2/10
OCEAN-CITY-INLET 0200   37 42  250/  3/  4 1026.8S
WACHAPREAGUE VA  0200   33 45  280/  1/  2 1027.7R
GOOSES REEF MD   0300   39 39  210/  8/ 10 1027.4F   1/ 3
COVE POINT MD    0200   37     200/  7/  9 1027.6F
SOLOMONS ISLAND  0200   36 41  190/  3/  5   N/A
BISHOPS HEAD MD  0200   38 41  180/  6/  7 1026.3F
POTOMAC MD       0300   37 41  210/  6/  8 1025.7F   1
CAMBRIDGE MD     0200   34 40  190/  3/  5 1026.4F
LEWISETTA VA     0200   36 42  210/  5/  6 1026.8F
RAPPAHANNOCK LGT 0200          140/  5/  5 1027.5F
STINGRAY PT      0300   38 42   CALM  /  2 1026.4F   0
YORK RVR RNG VA  0200   40     180/  5/  6 1026.6F
YORKTOWN VA      0200   36 44  170/  3/  4 1026.8F
JAMESTOWN VA     0300   35 44   50/  2/  2   N/A     0
DOMINION TERM VA 0200   40     140/  5/  6 1027.0F
KIPTOPEKE VA     0200      43     CALM       N/A
CHES BAY BRIDGE  0200   39 44   CALM  /  1 1026.9S
CAPE HENRY VA    0200   38     230/  1/  1   N/A
CHESAPEAKE LGHT  0200   40      30/  2/  2 1027.9F
WILLOUBY STN VA  0200   39     130/  4/  5 1027.5S
CAPE HENRY BUOY  0228      46                N/A     3/11   2/11
1ST LANDING BUOY 0300      42                N/A     1/ 5
CAPE CHARLES BUO 0226      45                N/A     2/11   2/11
OFFSHORE WE BUOY 0221      49                N/A     3/ 8   3/ 8
64NM E OF VA BCH 0250   44 53  360/ 14/ 16 1025.2F   4/10   3/10
DUCK PIER NC     0200   42 45   10/ 10/ 12 1025.8F
44100 DUCK FRF   0224      46                N/A     4/11   2/11
44056 DUCK FRF   0211      45                N/A     4/11   2/11
OREGON INLET NC  0200   43 47  360/  8/ 13 1025.3F
HATTERAS NC      0200   45 52   10/ 20/ 23 1024.2F
DIAMOND SHLS NC  0250   54 71   10/ 17/ 21 1023.1F   6/11   3/11
$$



USA.gov is the U.S. government's official web portal to all federal, state and local government web resources and services.